Date String (YYYY-MM-DD hh:mm:ss) UTC,Instrument flags,absolute air pressure of the measurement (hPa),sample flow rate (lpm),inlet stack bypass flow (lpm),air temperature of the measurement (°C),ambient temperature measured by the external sensor (°C),aerosol sample conditioner tube jacket temperature (°C),OPC LED temperature (°C),internal box temperature (°C),relative humidity of the measurement (%),span deviation,mass concentration of particles derived from Lorenz-Mie calculation of OPC scattering (μg/m³),mass concentration of particles derived from Lorenz-Mie calculation of OPC scattering (μg/m³),mass concentration of particles derived from Lorenz-Mie calculation of OPC scattering (μg/m³)
DateTimeUTC,F1_M11,P_M11,Q1_M11,Q2_M11,T1_M11,T2_M11,T3_M11,T4_M11,T5_M11,U1_M11,ZSPAN_M11,X0_M11,X2_M11,X1_M11
2023-10-07 00:00:00,SystemResetWarning,0839.9,5.01,000.00,027.7,026.6,000.0,036.1,029.4,18.2,0001.7,0014.22,0006.36,0005.44
2023-10-07 00:01:00,SystemResetWarning,0839.9,5.01,000.00,027.8,026.6,000.0,036.1,029.4,18.1,0001.8,0013.89,0006.33,0005.43
2023-10-07 00:02:00,SystemResetWarning,0839.9,5.00,000.00,027.8,026.6,000.0,036.1,029.4,18.1,0002.4,0013.42,0006.29,0005.41
2023-10-07 00:03:00,SystemResetWarning,0839.9,5.00,000.00,027.8,026.6,000.0,036.2,029.4,18.0,0002.7,0013.49,0006.24,0005.39
2023-10-07 00:04:00,SystemResetWarning,0839.9,4.99,000.00,027.8,026.6,000.0,036.2,029.5,17.9,0002.5,0013.65,0006.26,0005.40
2023-10-07 00:05:00,SystemResetWarning,0839.9,5.00,000.00,027.8,026.7,000.0,036.2,029.5,17.9,0001.5,0013.30,0006.36,0005.41
2023-10-07 00:06:00,SystemResetWarning,0839.9,4.99,000.00,027.8,026.7,000.0,036.2,029.5,17.9,0000.7,0013.33,0006.36,0005.39
2023-10-07 00:07:00,SystemResetWarning,0839.9,4.99,000.00,027.9,026.7,000.0,036.2,029.5,17.8,0000.0,0013.21,0006.33,0005.38
2023-10-07 00:08:00,SystemResetWarning,0840.0,5.01,000.00,027.9,026.7,000.0,036.2,029.5,17.8,0000.0,0012.81,0006.23,0005.34
2023-10-07 00:09:00,SystemResetWarning,0839.9,5.01,000.00,027.9,026.7,000.0,036.2,029.5,17.8,0000.0,0013.52,0006.15,0005.30
2023-10-07 00:10:00,SystemResetWarning,0840.0,5.01,000.00,027.9,026.7,000.0,036.2,029.5,17.7,0001.4,0013.45,0006.10,0005.26
2023-10-07 00:11:00,SystemResetWarning,0840.0,5.00,000.00,027.9,026.7,000.0,036.2,029.5,17.7,0001.9,0012.98,0006.04,0005.23
2023-10-07 00:12:00,SystemResetWarning,0840.0,5.00,000.00,027.9,026.7,000.0,036.2,029.6,17.7,0000.8,0012.67,0006.00,0005.22
2023-10-07 00:13:00,SystemResetWarning,0840.0,5.00,000.00,027.9,026.8,000.0,036.3,029.6,17.7,0000.0,0012.65,0006.03,0005.21
2023-10-07 00:14:00,SystemResetWarning,0840.0,5.00,000.00,028.0,026.8,000.0,036.3,029.6,17.6,0000.0,0013.29,0006.08,0005.21
2023-10-07 00:15:00,SystemResetWarning,0840.0,5.01,000.00,028.0,026.8,000.0,036.3,029.6,17.7,0000.1,0014.25,0006.11,0005.21
2023-10-07 00:16:00,SystemResetWarning,0840.1,5.00,000.00,028.0,026.8,000.0,036.3,029.7,17.7,0000.3,0014.69,0006.06,0005.20
2023-10-07 00:17:00,SystemResetWarning,0840.0,5.00,000.00,028.0,026.8,000.0,036.3,029.7,17.7,0000.0,0015.10,0006.05,0005.20
2023-10-07 00:18:00,SystemResetWarning,0840.0,5.00,000.00,028.0,026.8,000.0,036.3,029.7,17.7,0000.0,0015.31,0006.12,0005.23
2023-10-07 00:19:00,SystemResetWarning,0840.1,5.00,000.00,028.1,026.9,000.0,036.4,029.7,17.7,0000.0,0015.30,0006.17,0005.26
2023-10-07 00:20:00,SystemResetWarning,0840.1,4.99,000.00,028.1,026.9,000.0,036.4,029.8,17.6,0000.0,0014.44,0006.24,0005.30
2023-10-07 00:21:00,SystemResetWarning,0840.1,4.99,000.00,028.1,026.9,000.0,036.4,029.8,17.6,0000.0,0013.95,0006.26,0005.33
2023-10-07 00:22:00,SystemResetWarning,0840.1,4.99,000.00,028.1,026.9,000.0,036.4,029.8,17.6,0000.0,0014.04,0006.28,0005.35
2023-10-07 00:23:00,SystemResetWarning,0840.1,5.01,000.00,028.1,026.9,000.0,036.4,029.8,17.6,0000.0,0014.11,0006.31,0005.36
2023-10-07 00:24:00,SystemResetWarning,0840.1,5.01,000.00,028.1,026.9,000.0,036.4,029.8,17.5,0000.3,0014.13,0006.32,0005.36
2023-10-07 00:25:00,SystemResetWarning,0840.1,5.00,000.00,028.1,026.9,000.0,036.4,029.8,17.5,0000.0,0013.61,0006.31,0005.34
2023-10-07 00:26:00,SystemResetWarning,0840.1,4.99,000.00,028.2,026.9,000.0,036.4,029.8,17.5,0001.2,0012.63,0006.27,0005.34
2023-10-07 00:27:00,SystemResetWarning,0840.0,5.00,000.00,028.2,026.9,000.0,036.5,029.8,17.5,0001.3,0012.09,0006.27,0005.33
2023-10-07 00:28:00,SystemResetWarning,0840.0,5.00,000.00,028.2,026.9,000.0,036.5,029.8,17.5,0000.6,0011.53,0006.28,0005.33
2023-10-07 00:29:00,SystemResetWarning,0840.0,4.99,000.00,028.2,027.0,000.0,036.5,029.8,17.5,0000.2,0011.50,0006.25,0005.33
2023-10-07 00:30:00,SystemResetWarning,0840.0,5.00,000.00,028.2,027.0,000.0,036.5,029.9,17.5,0000.1,0012.01,0006.26,0005.31
2023-10-07 00:31:00,SystemResetWarning,0840.0,5.01,000.00,028.2,027.0,000.0,036.5,029.9,17.4,0000.6,0011.88,0006.21,0005.29
2023-10-07 00:32:00,SystemResetWarning,0839.9,5.00,000.00,028.2,027.0,000.0,036.5,029.9,17.4,0000.6,0012.02,0006.17,0005.27
2023-10-07 00:33:00,SystemResetWarning,0840.0,5.01,000.00,028.2,027.0,000.0,036.5,029.9,17.4,0000.7,0012.37,0006.17,0005.26
2023-10-07 00:34:00,SystemResetWarning,0840.0,5.00,000.00,028.2,027.0,000.0,036.6,029.9,17.4,0000.8,0012.95,0006.16,0005.23
2023-10-07 00:35:00,SystemResetWarning,0840.0,4.99,000.00,028.2,027.0,000.0,036.6,029.8,17.4,0001.0,0012.93,0006.11,0005.21
2023-10-07 00:36:00,SystemResetWarning,0840.0,4.99,000.00,028.2,027.0,000.0,036.6,029.8,17.4,0001.0,0012.71,0006.07,0005.20
2023-10-07 00:37:00,SystemResetWarning,0840.0,5.00,000.00,028.2,027.0,000.0,036.6,029.8,17.4,0000.5,0012.65,0006.07,0005.17
2023-10-07 00:38:00,SystemResetWarning,0839.9,5.00,000.00,028.2,026.9,000.0,036.6,029.8,17.4,0000.2,0012.31,0006.02,0005.15
2023-10-07 00:39:00,SystemResetWarning,0839.9,5.01,000.00,028.2,026.9,000.0,036.6,029.8,17.4,-000.0,0012.12,0005.96,0005.13
2023-10-07 00:40:00,SystemResetWarning,0839.9,5.01,000.00,028.2,026.9,000.0,036.6,029.8,17.4,0000.2,0011.92,0005.88,0005.10
2023-10-07 00:41:00,SystemResetWarning,0839.9,5.00,000.00,028.2,026.9,000.0,036.6,029.8,17.5,0000.4,0011.52,0005.82,0005.08
2023-10-07 00:42:00,SystemResetWarning,0839.9,5.00,000.00,028.2,026.9,000.0,036.6,029.8,17.5,0000.5,0011.75,0005.78,0005.04
2023-10-07 00:43:00,SystemResetWarning,0839.9,5.00,000.00,028.2,026.9,000.0,036.7,029.8,17.5,0000.0,0011.64,0005.76,0005.01
2023-10-07 00:44:00,SystemResetWarning,0840.0,5.00,000.00,028.2,026.9,000.0,036.7,029.8,17.5,0000.0,0011.19,0005.73,0004.98
2023-10-07 00:45:00,SystemResetWarning,0840.0,5.00,000.00,028.2,026.9,000.0,036.7,029.8,17.6,0000.0,0010.45,0005.69,0004.96
2023-10-07 00:46:00,SystemResetWarning,0840.0,5.00,000.00,028.2,026.9,000.0,036.7,029.7,17.6,0000.0,0010.47,0005.64,0004.94
2023-10-07 00:47:00,SystemResetWarning,0840.1,5.00,000.00,028.2,026.8,000.0,036.7,029.7,17.7,0000.0,0010.90,0005.60,0004.93
2023-10-07 00:48:00,SystemResetWarning,0840.1,5.00,000.00,028.2,026.8,000.0,036.7,029.7,17.7,0000.0,0011.00,0005.55,0004.92
2023-10-07 00:49:00,SystemResetWarning,0840.1,5.01,000.00,028.2,026.8,000.0,036.7,029.7,17.7,0000.0,0010.96,0005.52,0004.92
2023-10-07 00:50:00,SystemResetWarning,0840.1,5.01,000.00,028.2,026.8,000.0,036.7,029.7,17.8,0000.0,0010.98,0005.52,0004.90
2023-10-07 00:51:00,SystemResetWarning,0840.0,5.00,000.00,028.2,026.8,000.0,036.6,029.7,17.8,0000.0,0010.88,0005.51,0004.89
2023-10-07 00:52:00,SystemResetWarning,0840.0,5.00,000.00,028.1,026.8,000.0,036.7,029.7,17.8,0000.0,0010.55,0005.46,0004.87
2023-10-07 00:53:00,SystemResetWarning,0840.0,5.00,000.00,028.1,026.7,000.0,036.7,029.7,17.9,0000.0,0010.57,0005.49,0004.87
2023-10-07 00:54:00,SystemResetWarning,0840.0,4.99,000.00,028.1,026.7,000.0,036.6,029.7,17.9,0000.0,0010.92,0005.50,0004.86
2023-10-07 00:55:00,SystemResetWarning,0840.0,5.00,000.00,028.1,026.7,000.0,036.6,029.7,17.9,0000.0,0010.83,0005.45,0004.86
2023-10-07 00:56:00,SystemResetWarning,0840.0,5.01,000.00,028.1,026.7,000.0,036.6,029.7,17.9,0000.0,0011.53,0005.41,0004.86
2023-10-07 00:57:00,SystemResetWarning,0840.0,5.01,000.00,028.1,026.7,000.0,036.6,029.7,17.9,0000.0,0012.02,0005.43,0004.86
2023-10-07 00:58:00,SystemResetWarning,0840.0,5.00,000.00,028.1,026.7,000.0,036.6,029.6,18.0,0000.0,0011.47,0005.45,0004.87
2023-10-07 00:59:00,SystemResetWarning,0840.0,5.00,000.00,028.1,026.7,000.0,036.6,029.6,18.0,0000.0,0011.05,0005.46,0004.87
